This is the latest recevied weather packets stored in our database for station/object KC1OEK-13. If no packets are shown the sender has not sent any weather packets the latest 10 day(s).
| Time | Temp. | Humidity | Pressure | Rain* | Wind** | Luminosity | Snow |
|---|---|---|---|---|---|---|---|
| 1787679323 | 23.89° C | 68% | 1017 hPa | 0 mm | - | 381 W/m² | - |
| 1787679018 | 23.33° C | 66% | 1017.2 hPa | 0 mm | - | 351 W/m² | - |
| 1787678713 | 23.89° C | 67% | 1017.2 hPa | 0 mm | - | 365 W/m² | - |
| 1787678408 | 23.89° C | 65% | 1017.1 hPa | 0 mm | - | 372 W/m² | - |
| 1787678103 | 23.89° C | 66% | 1017 hPa | 0 mm | - | 480 W/m² | - |
| 1787677803 | 23.33° C | 66% | 1017.2 hPa | 0 mm | - | 312 W/m² | - |
| 1787677497 | 23.89° C | 66% | 1017.2 hPa | 0 mm | - | 303 W/m² | - |
| 1787677196 | 23.89° C | 65% | 1017.1 hPa | 0 mm | - | 999 W/m² | - |
| 1787676895 | 23.33° C | 66% | 1017.2 hPa | 0 mm | - | 284 W/m² | - |
| 1787676590 | 23.89° C | 66% | 1017.3 hPa | 0 mm | - | 445 W/m² | - |
| 1787676288 | 23.89° C | 65% | 1017.3 hPa | 0 mm | - | 315 W/m² | - |
| 1787675983 | 24.44° C | 62% | 1017.3 hPa | 0 mm | - | 278 W/m² | - |
| 1787675679 | 23.33° C | 66% | 1017.5 hPa | 0 mm | - | 879 W/m² | - |
| 1787675377 | 22.78° C | 64% | 1017.3 hPa | 0 mm | - | 474 W/m² | - |
| 1787675072 | 23.89° C | 62% | 1017.4 hPa | 0 mm | - | 221 W/m² | - |
| 1787674766 | 23.89° C | 63% | 1017.3 hPa | 0 mm | - | 516 W/m² | - |
| 1787674462 | 23.89° C | 70% | 1017.3 hPa | 0 mm | - | 287 W/m² | - |
| 1787674157 | 22.78° C | 66% | 1017.5 hPa | 0 mm | - | 867 W/m² | - |
| 1787673852 | 23.33° C | 67% | 1017.3 hPa | 0 mm | - | 263 W/m² | - |
| 1787673547 | 23.33° C | 63% | 1017.4 hPa | 0 mm | - | 901 W/m² | - |
| 1787673246 | 24.44° C | 61% | 1017.4 hPa | 0 mm | - | 359 W/m² | - |
| 1787672941 | 23.89° C | 62% | 1017.5 hPa | 0 mm | - | 360 W/m² | - |
| 1787672637 | 23.33° C | 65% | 1017.5 hPa | 0 mm | - | 872 W/m² | - |
| 1787672335 | 23.33° C | 64% | 1017.5 hPa | 0 mm | - | 208 W/m² | - |
| 1787672030 | 25° C | 63% | 1017.7 hPa | 0 mm | - | 222 W/m² | - |
* Rain latest hour (hover to see other rain measurements)
** Current wind speed in m/s (hover to see current wind gust speed)